Margaret Moran — WQZ6557 — position and weather

sailwx.info

Track history (hours):
 
Tides and Currents Weather Stations Pressure Air Temp Water Temp Dewpoint Dewpoint Depression Visibility Wind Speed Wind Dir Waves Ship Positions

Margaret Moran

Owner: MORAN TOWING CORPORATION, New Canaan, CT. More information available from US FCC via Universal Licensing System and Coast Guard Vessel Documentation Center.

Last reported at 2017-Nov-17 17:25 UTC. Time now 2017-Nov-17 17:55 UTC.
Position N 40°38' W 074°08'.

Length 31 m; draft 4.6 m.

Type: Tug. MMSI: 366939820.

Date/timePositionNaut miles runAvg speedWind from/ knotsBaromVisibWave heightAir tempDewpointWater temp
2017-Nov-17 17:25N 40°38' W 074°08'0 0.0
2017-Nov-17 16:58N 40°38' W 074°08'0 0.0
2017-Nov-17 16:28N 40°38' W 074°08'0 0.0
2017-Nov-17 15:58N 40°38' W 074°08'0 0.0
2017-Nov-17 15:30N 40°38' W 074°08'0 0.0
2017-Nov-17 15:00N 40°38' W 074°08'0 0.1
2017-Nov-17 14:04N 40°38' W 074°08'0 0.1
2017-Nov-17 13:59N 40°38' W 074°08'2 4.3
2017-Nov-17 13:30N 40°40' W 074°08'2 3.9
2017-Nov-17 13:00N 40°39' W 074°08'2 4.8
2017-Nov-17 12:30N 40°39' W 074°04'2 3.2
2017-Nov-17 12:00N 40°38' W 074°04'3 5.0
2017-Nov-17 11:30N 40°39' W 074°07'2 4.0
2017-Nov-17 11:00N 40°39' W 074°09'2 3.4
2017-Nov-17 10:30N 40°40' W 074°08'1 1.5
2017-Nov-17 10:00N 40°41' W 074°09'0 0.2
2017-Nov-17 09:30N 40°41' W 074°09'3 5.2
2017-Nov-17 09:00N 40°38' W 074°08'0 0.1
2017-Nov-17 08:29N 40°38' W 074°08'0 0.0
2017-Nov-17 07:35N 40°38' W 074°08'0 0.0
2017-Nov-17 07:23N 40°38' W 074°08'0 0.0
2017-Nov-17 06:59N 40°38' W 074°08'0 0.0
2017-Nov-17 06:29N 40°38' W 074°08'0 0.0
2017-Nov-17 05:29N 40°38' W 074°08'0 0.0
2017-Nov-17 04:59N 40°38' W 074°08'0 0.0
2017-Nov-17 04:29N 40°38' W 074°08'0 0.0
2017-Nov-17 02:23N 40°38' W 074°08'0 0.0
2017-Nov-17 01:59N 40°38' W 074°08'1 1.7
2017-Nov-17 01:30N 40°39' W 074°07'2 3.3
2017-Nov-17 01:00N 40°40' W 074°08'2 3.6
2017-Nov-17 00:30N 40°42' W 074°08'0 0.4
2017-Nov-17 00:00N 40°42' W 074°09'3 5.4
2017-Nov-16 23:30N 40°39' W 074°09'5 2.4
2017-Nov-16 21:38N 40°35' W 074°12'0 0.8
2017-Nov-16 21:27N 40°35' W 074°12'1 3.3
2017-Nov-16 21:00N 40°37' W 074°12'2 4.5
2017-Nov-16 20:30N 40°39' W 074°11'3 6.0
2017-Nov-16 20:00N 40°39' W 074°07'1 2.9
2017-Nov-16 19:30N 40°39' W 074°05'2 4.5
2017-Nov-16 19:00N 40°38' W 074°08'0 0.0
2017-Nov-16 18:29N 40°38' W 074°08'0 0.0
2017-Nov-16 17:58N 40°38' W 074°08'0 0.0
2017-Nov-16 17:28N 40°38' W 074°08'0 0.0
2017-Nov-16 16:58N 40°38' W 074°08'0 0.0
2017-Nov-16 16:20N 40°38' W 074°08'0 0.0
2017-Nov-16 15:56N 40°38' W 074°08'0 0.0
2017-Nov-16 15:26N 40°38' W 074°08'0 0.0
2017-Nov-16 14:06N 40°39' W 074°08'0 0.1
2017-Nov-16 13:58N 40°38' W 074°08'0 0.0
2017-Nov-16 13:13N 40°38' W 074°08'0 0.0
2017-Nov-16 12:49N 40°38' W 074°08'0 0.0
2017-Nov-16 12:28N 40°38' W 074°08'1 2.2
2017-Nov-16 12:00N 40°39' W 074°09'2 3.6
2017-Nov-16 11:30N 40°41' W 074°09'0 0.9
2017-Nov-16 11:00N 40°40' W 074°08'2 3.1
2017-Nov-16 10:23N 40°39' W 074°07'2 5.7
2017-Nov-16 10:00N 40°39' W 074°04'3 5.7
2017-Nov-16 09:30N 40°39' W 074°08'3 6.7
2017-Nov-16 09:01N 40°39' W 074°04'1 1.6
2017-Nov-16 08:30N 40°38' W 074°04'3 6.0
2017-Nov-16 07:58N 40°38' W 074°08'0 0.0
2017-Nov-16 07:28N 40°38' W 074°08'0 0.0
2017-Nov-16 06:58N 40°38' W 074°08'0 0.0
2017-Nov-16 06:28N 40°38' W 074°08'0 0.0
2017-Nov-16 05:58N 40°38' W 074°08'0 0.0
2017-Nov-16 05:28N 40°38' W 074°08'0 0.0
2017-Nov-16 04:58N 40°38' W 074°08'0 0.0
2017-Nov-16 04:28N 40°38' W 074°08'0 0.0
2017-Nov-16 03:58N 40°38' W 074°08'0 0.0
2017-Nov-16 03:28N 40°38' W 074°08'0 0.0
2017-Nov-16 02:58N 40°38' W 074°08'0 0.0
2017-Nov-16 02:28N 40°38' W 074°08'0 0.8
2017-Nov-16 02:00N 40°39' W 074°08'2 4.8
2017-Nov-16 01:30N 40°38' W 074°11'0 0.2
2017-Nov-16 01:00N 40°38' W 074°12'2 3.4
2017-Nov-16 00:30N 40°39' W 074°09'5 9.5
2017-Nov-16 00:01N 40°40' W 074°03'2 3.0
2017-Nov-15 23:30N 40°39' W 074°05'0 0.0
2017-Nov-15 23:00N 40°39' W 074°05'1 1.5
2017-Nov-15 22:30N 40°39' W 074°04'1 2.4
2017-Nov-15 22:00N 40°38' W 074°03'0 0.0
2017-Nov-15 21:30N 40°38' W 074°03'3 5.9
2017-Nov-15 21:00N 40°39' W 074°07'2 3.8
2017-Nov-15 20:27N 40°40' W 074°08'1 1.2
2017-Nov-15 20:00N 40°41' W 074°08'2 4.0
2017-Nov-15 19:30N 40°43' W 074°07'2 4.5
2017-Nov-15 19:00N 40°41' W 074°08'1 2.7
2017-Nov-15 18:30N 40°39' W 074°09'1 2.5
2017-Nov-15 18:00N 40°39' W 074°07'0 0.7
2017-Nov-15 17:30N 40°38' W 074°08'0 0.0
2017-Nov-15 16:54N 40°38' W 074°08'0 0.0
2017-Nov-15 16:24N 40°38' W 074°08'0 0.0
2017-Nov-15 15:48N 40°38' W 074°08'0 0.0
2017-Nov-15 15:27N 40°38' W 074°08'0 0.0
2017-Nov-15 14:54N 40°38' W 074°08'0 0.0
2017-Nov-15 14:30N 40°38' W 074°08'0 0.0
2017-Nov-15 13:49N 40°38' W 074°08'1 2.6
2017-Nov-15 13:30N 40°39' W 074°09'3 5.0
2017-Nov-15 13:00N 40°39' W 074°06'2 3.5
2017-Nov-15 12:30N 40°38' W 074°04'2 3.5
2017-Nov-15 12:00N 40°39' W 074°06'0 0.0
2017-Nov-15 11:30N 40°39' W 074°06'0 0.0
2017-Nov-15 11:00N 40°39' W 074°06'0 0.0
2017-Nov-15 10:27N 40°39' W 074°06'1 2.2
2017-Nov-15 10:00N 40°39' W 074°07'1 3.0
2017-Nov-15 09:30N 40°39' W 074°09'2 3.2
2017-Nov-15 09:00N 40°41' W 074°08'1 1.5
2017-Nov-15 08:30N 40°41' W 074°09'0 0.2
2017-Nov-15 07:59N 40°41' W 074°09'0 0.0
2017-Nov-15 07:29N 40°41' W 074°09'0 0.3
2017-Nov-15 07:00N 40°41' W 074°09'3 4.9
2017-Nov-15 06:28N 40°38' W 074°08'0 0.0
2017-Nov-15 05:58N 40°39' W 074°08'0 0.0
2017-Nov-15 05:28N 40°39' W 074°08'0 0.0
2017-Nov-15 04:58N 40°38' W 074°08'0 0.0
2017-Nov-15 04:26N 40°38' W 074°08'4 8.5
2017-Nov-15 04:00N 40°40' W 074°03'2 5.0
2017-Nov-15 03:30N 40°41' W 074°01'2 3.9
2017-Nov-15 03:00N 40°40' W 074°03'1 2.2
2017-Nov-15 02:30N 40°39' W 074°03'2 4.9
2017-Nov-15 02:00N 40°39' W 074°06'1 2.1
2017-Nov-15 01:28N 40°38' W 074°08'0 0.0
2017-Nov-15 00:43N 40°38' W 074°08'0 0.0
2017-Nov-15 00:25N 40°38' W 074°08'0 0.0
2017-Nov-14 23:58N 40°38' W 074°08'2 5.4
2017-Nov-14 23:31N 40°39' W 074°11'1 2.6
2017-Nov-14 23:00N 40°38' W 074°12'1 2.3
2017-Nov-14 22:30N 40°37' W 074°12'2 2.8
2017-Nov-14 21:56N 40°35' W 074°13'1 1.2
2017-Nov-14 21:30N 40°36' W 074°12'4 8.0
2017-Nov-14 21:00N 40°39' W 074°09'1 2.6
2017-Nov-14 20:30N 40°38' W 074°08'0 0.0
2017-Nov-14 19:54N 40°38' W 074°08'0 0.0
2017-Nov-14 19:30N 40°38' W 074°08'0 0.0
2017-Nov-14 19:00N 40°38' W 074°08'0 0.0
2017-Nov-14 18:30N 40°38' W 074°08'0 0.0
2017-Nov-14 17:54N 40°38' W 074°08'0 0.0
2017-Nov-14 17:30N 40°38' W 074°08'0 0.0
2017-Nov-14 16:21N 40°38' W 074°08'0 0.0
2017-Nov-14 15:57N 40°38' W 074°08'0 0.0
2017-Nov-14 14:42N 40°38' W 074°08'1 5.5
2017-Nov-14 14:30N 40°39' W 074°06'2 3.5
2017-Nov-14 13:54N 40°39' W 074°09'2 4.4
2017-Nov-14 13:30N 40°41' W 074°09'0 0.1
2017-Nov-14 13:00N 40°41' W 074°09'2 4.0
2017-Nov-14 12:30N 40°39' W 074°09'1 1.6
2017-Nov-14 11:58N 40°38' W 074°08'0 0.0
2017-Nov-14 11:30N 40°38' W 074°08'4 7.4
2017-Nov-14 11:00N 40°40' W 074°03'1 2.8
2017-Nov-14 10:30N 40°40' W 074°05'0 0.2
2017-Nov-14 10:00N 40°40' W 074°05'0 0.0
2017-Nov-14 09:31N 40°40' W 074°05'0 0.0
2017-Nov-14 09:00N 40°40' W 074°05'0 0.0
2017-Nov-14 08:30N 40°40' W 074°05'0 0.0
2017-Nov-14 08:00N 40°40' W 074°05'1 2.2
2017-Nov-14 07:31N 40°39' W 074°05'5 9.0
2017-Nov-14 07:00N 40°39' W 074°11'4 7.8
2017-Nov-14 06:30N 40°35' W 074°13'0 0.0
2017-Nov-14 06:01N 40°35' W 074°13'0 0.1
2017-Nov-14 05:30N 40°35' W 074°13'4 7.1
2017-Nov-14 05:00N 40°39' W 074°11'3 5.4
2017-Nov-14 04:29N 40°38' W 074°08'0 0.0
2017-Nov-14 03:59N 40°38' W 074°08'0 0.0
2017-Nov-14 03:29N 40°38' W 074°08'0 0.0
2017-Nov-14 02:59N 40°38' W 074°08'0 0.0
2017-Nov-14 02:20N 40°38' W 074°08'0 0.0
2017-Nov-14 01:59N 40°38' W 074°08'0 0.0
2017-Nov-14 01:29N 40°38' W 074°08'0 0.0
2017-Nov-14 00:59N 40°38' W 074°08'0 0.0
2017-Nov-14 00:11N 40°38' W 074°08'0 0.0
2017-Nov-13 23:59N 40°38' W 074°08'0 0.0
2017-Nov-13 23:26N 40°38' W 074°08'0 0.0
2017-Nov-13 23:00N 40°38' W 074°08'4 7.3
2017-Nov-13 22:30N 40°37' W 074°03'0 1.0
2017-Nov-13 22:00N 40°38' W 074°04'3 0.2
2017-Nov-13 02:00N 40°38' W 074°08'0 0.0
2017-Nov-13 01:27N 40°38' W 074°08'0 0.0
2017-Nov-13 01:00N 40°38' W 074°08'0 0.0
2017-Nov-13 00:30N 40°38' W 074°08'0 0.0
2017-Nov-12 23:57N 40°38' W 074°08'0 0.0
2017-Nov-12 23:30N 40°38' W 074°08'0 0.0
2017-Nov-12 22:45N 40°38' W 074°08'0 0.0
2017-Nov-12 22:30N 40°38' W 074°08'0 0.0
2017-Nov-12 21:57N 40°38' W 074°08'0 0.1
2017-Nov-12 21:27N 40°38' W 074°08'0 0.0
2017-Nov-12 21:00N 40°38' W 074°08'0 0.0
2017-Nov-12 20:27N 40°38' W 074°08'0 0.0
2017-Nov-12 20:00N 40°38' W 074°08'0 0.0
2017-Nov-12 19:27N 40°38' W 074°08'0 0.0
2017-Nov-12 18:57N 40°38' W 074°08'0 0.0
2017-Nov-12 18:30N 40°38' W 074°08'0 0.0
2017-Nov-12 17:57N 40°38' W 074°08'0 0.0
2017-Nov-12 17:30N 40°38' W 074°08'0 0.0
2017-Nov-12 16:54N 40°38' W 074°08'1 3.1
2017-Nov-12 16:30N 40°40' W 074°09'1 1.9
2017-Nov-12 16:00N 40°40' W 074°08'2 3.9
2017-Nov-12 15:30N 40°39' W 074°08'1 0.2
2017-Nov-12 12:48N 40°38' W 074°08'1 2.7
2017-Nov-12 12:30N 40°39' W 074°09'3 5.1
2017-Nov-12 12:00N 40°41' W 074°08'0 0.3
2017-Nov-12 11:30N 40°41' W 074°08'1 1.5
2017-Nov-12 10:59N 40°40' W 074°08'2 3.3
2017-Nov-12 10:30N 40°39' W 074°08'3 6.0
2017-Nov-12 10:00N 40°39' W 074°04'2 3.8
2017-Nov-12 09:30N 40°41' W 074°04'0 0.4
2017-Nov-12 09:01N 40°41' W 074°04'3 6.7
2017-Nov-12 08:30N 40°39' W 074°07'0 0.6
2017-Nov-12 07:59N 40°38' W 074°08'0 0.0
2017-Nov-12 07:29N 40°38' W 074°08'0 0.0
2017-Nov-12 06:59N 40°38' W 074°08'0 0.0
2017-Nov-12 06:29N 40°38' W 074°08'0 0.0
2017-Nov-12 05:59N 40°38' W 074°08'0 0.0
2017-Nov-12 05:29N 40°38' W 074°08'0 0.0
2017-Nov-12 04:56N 40°38' W 074°08'0 0.0
2017-Nov-12 04:29N 40°38' W 074°08'0 0.0
2017-Nov-12 03:59N 40°38' W 074°08'0 0.0
2017-Nov-12 03:29N 40°38' W 074°08'0 0.0
2017-Nov-12 02:59N 40°38' W 074°08'0 0.0
2017-Nov-12 02:29N 40°38' W 074°08'0 0.0
2017-Nov-12 01:53N 40°38' W 074°08'0 0.0
2017-Nov-12 01:29N 40°38' W 074°08'0 0.0
2017-Nov-12 00:50N 40°38' W 074°08'0 0.0
2017-Nov-12 00:26N 40°38' W 074°08'0 0.0
2017-Nov-11 23:59N 40°38' W 074°08'0 0.0
2017-Nov-11 23:26N 40°38' W 074°08'0 0.0
2017-Nov-11 22:56N 40°38' W 074°08'0 0.0
2017-Nov-11 22:30N 40°38' W 074°08'3 5.3
2017-Nov-11 21:59N 40°41' W 074°09'1 2.5
2017-Nov-11 21:30N 40°40' W 074°08'2 3.0
2017-Nov-11 20:59N 40°39' W 074°08'0 0.2
2017-Nov-11 20:26N 40°38' W 074°08'0 0.0
2017-Nov-11 19:50N 40°38' W 074°08'0 0.0
2017-Nov-11 19:20N 40°38' W 074°08'0 0.0
2017-Nov-11 18:59N 40°38' W 074°08'3 6.7
2017-Nov-11 18:29N 40°40' W 074°04'1 2.4
2017-Nov-11 18:00N 40°40' W 074°05'2 4.9
2017-Nov-11 17:30N 40°39' W 074°07'0 0.6
2017-Nov-11 16:57N 40°38' W 074°08'0 0.0
2017-Nov-11 16:24N 40°38' W 074°08'0 0.0
2017-Nov-11 16:00N 40°38' W 074°08'0 0.0
2017-Nov-11 15:30N 40°38' W 074°08'0 0.0
2017-Nov-11 15:00N 40°38' W 074°08'0 0.0
2017-Nov-11 14:30N 40°38' W 074°08'0 0.1
2017-Nov-11 14:00N 40°38' W 074°08'0 0.0
2017-Nov-11 13:30N 40°38' W 074°08'0 0.0
2017-Nov-11 13:00N 40°38' W 074°08'0 0.0
2017-Nov-11 12:30N 40°38' W 074°08'0 0.0
2017-Nov-11 11:57N 40°38' W 074°08'0 0.0
2017-Nov-11 11:27N 40°38' W 074°08'0 0.0
2017-Nov-11 11:00N 40°38' W 074°08'0 0.0
2017-Nov-11 10:27N 40°38' W 074°08'0 0.0
2017-Nov-11 09:57N 40°38' W 074°08'0 0.0
2017-Nov-11 09:30N 40°38' W 074°08'0 0.0
2017-Nov-11 08:57N 40°38' W 074°08'0 0.0
2017-Nov-11 08:27N 40°38' W 074°08'0 0.0
2017-Nov-11 07:57N 40°38' W 074°08'0 0.0
2017-Nov-11 07:21N 40°38' W 074°08'0 0.0
2017-Nov-11 06:57N 40°38' W 074°08'0 0.0
2017-Nov-11 06:27N 40°38' W 074°08'0 0.0
2017-Nov-11 05:57N 40°38' W 074°08'0 0.0
2017-Nov-11 05:27N 40°38' W 074°08'0 0.0
2017-Nov-11 05:00N 40°38' W 074°08'0 0.0
2017-Nov-11 04:27N 40°38' W 074°08'2 4.3
2017-Nov-11 04:00N 40°39' W 074°10'7 9.4
2017-Nov-11 03:14N 40°33' W 074°15'0 0.2
2017-Nov-11 02:11N 40°33' W 074°15'2 0.7
2017-Nov-10 22:40N 40°34' W 074°13'1 6.0
2017-Nov-10 22:29N 40°35' W 074°12'3 5.7
2017-Nov-10 22:00N 40°38' W 074°12'2 4.3
2017-Nov-10 21:30N 40°39' W 074°09'3 6.1
2017-Nov-10 21:01N 40°39' W 074°05'3 5.4
2017-Nov-10 20:30N 40°37' W 074°03'2 3.7
2017-Nov-10 20:00N 40°38' W 074°04'0 0.0
2017-Nov-10 19:30N 40°38' W 074°04'0 1.0
2017-Nov-10 19:01N 40°38' W 074°04'1 1.7
2017-Nov-10 18:30N 40°39' W 074°04'3 4.5
2017-Nov-10 17:55N 40°38' W 074°08'0 0.0
2017-Nov-10 17:25N 40°38' W 074°08'0 0.0
2017-Nov-10 16:58N 40°38' W 074°08'0 0.0
2017-Nov-10 16:28N 40°38' W 074°08'0 0.0
2017-Nov-10 15:55N 40°38' W 074°08'0 0.0
2017-Nov-10 15:28N 40°38' W 074°08'0 0.0
2017-Nov-10 14:58N 40°38' W 074°08'0 0.0
2017-Nov-10 14:28N 40°38' W 074°08'0 0.0
2017-Nov-10 13:58N 40°38' W 074°08'0 0.0
2017-Nov-10 13:07N 40°38' W 074°08'0 0.0
2017-Nov-10 12:55N 40°38' W 074°08'0 0.0
2017-Nov-10 12:28N 40°38' W 074°08'1 3.1
2017-Nov-10 12:00N 40°40' W 074°08'1 2.8
2017-Nov-10 11:29N 40°41' W 074°09'1 2.5
2017-Nov-10 11:00N 40°40' W 074°08'2 3.4
2017-Nov-10 10:30N 40°39' W 074°09'3 5.1
2017-Nov-10 10:01N 40°39' W 074°05'2 4.8
2017-Nov-10 09:31N 40°38' W 074°03'3 6.5
2017-Nov-10 09:00N 40°39' W 074°07'1 1.3
2017-Nov-10 08:30N 40°38' W 074°08'0 0.0
2017-Nov-10 08:00N 40°38' W 074°08'0 0.0
2017-Nov-10 07:30N 40°38' W 074°08'0 0.0
2017-Nov-10 07:00N 40°38' W 074°08'3 5.1
2017-Nov-10 06:30N 40°39' W 074°11'0 0.7
2017-Nov-10 06:01N 40°38' W 074°12'3 5.5
2017-Nov-10 05:30N 40°39' W 074°08'3 5.2
2017-Nov-10 05:00N 40°39' W 074°05'4 7.7
2017-Nov-10 04:31N 40°36' W 074°02'2 3.9
2017-Nov-10 04:00N 40°38' W 074°03'4 5.9
2017-Nov-10 03:23N 40°38' W 074°08'0 0.0
2017-Nov-10 03:00N 40°38' W 074°08'2 3.8
2017-Nov-10 02:30N 40°39' W 074°10'1 1.9
2017-Nov-10 02:00N 40°38' W 074°11'0 0.3
2017-Nov-10 01:29N 40°38' W 074°12'0 0.0
2017-Nov-10 00:59N 40°38' W 074°12'2 4.3
2017-Nov-10 00:30N 40°36' W 074°12'3 0.8
2017-Nov-09 21:16N 40°34' W 074°13'311.0
2017-Nov-09 21:00N 40°37' W 074°12'3 5.9
2017-Nov-09 20:30N 40°39' W 074°09'1 2.2
2017-Nov-09 19:56N 40°38' W 074°08'0 0.0
2017-Nov-09 19:29N 40°38' W 074°08'0 0.0
2017-Nov-09 18:56N 40°38' W 074°08'0 0.0
2017-Nov-09 18:29N 40°38' W 074°08'0 0.0
2017-Nov-09 17:59N 40°38' W 074°08'0 0.0
2017-Nov-09 17:29N 40°38' W 074°08'0 0.0
2017-Nov-09 16:56N 40°38' W 074°08'0 0.0
2017-Nov-09 16:26N 40°38' W 074°08'0 0.0
2017-Nov-09 15:59N 40°38' W 074°08'0 0.0
2017-Nov-09 15:30N 40°38' W 074°08'4 7.8
2017-Nov-09 14:59N 40°36' W 074°12'0 0.4
2017-Nov-09 13:57N 40°36' W 074°12'3 2.6
2017-Nov-09 12:48N 40°33' W 074°14'1 3.7
2017-Nov-09 12:30N 40°34' W 074°13'3 5.6
2017-Nov-09 12:00N 40°37' W 074°12'3 5.4
2017-Nov-09 11:30N 40°39' W 074°10'3 6.0
2017-Nov-09 11:00N 40°39' W 074°06'1 1.6
2017-Nov-09 10:30N 40°39' W 074°05'0 0.0
2017-Nov-09 10:00N 40°39' W 074°05'1 2.7
2017-Nov-09 09:30N 40°39' W 074°07'1 1.3
2017-Nov-09 08:59N 40°38' W 074°08'0 0.0
2017-Nov-09 08:26N 40°38' W 074°08'0 0.0
2017-Nov-09 07:56N 40°38' W 074°08'0 0.0
2017-Nov-09 07:29N 40°38' W 074°08'0 0.0
2017-Nov-09 06:56N 40°38' W 074°08'0 0.0
2017-Nov-09 06:29N 40°38' W 074°08'0 0.0
2017-Nov-09 05:59N 40°39' W 074°08'0 0.0
2017-Nov-09 05:29N 40°38' W 074°08'0 0.0
2017-Nov-09 04:59N 40°39' W 074°08'0 0.0
2017-Nov-09 04:23N 40°38' W 074°08'0 0.0
2017-Nov-09 03:59N 40°38' W 074°08'4 7.8
2017-Nov-09 03:31N 40°38' W 074°03'1 1.9
2017-Nov-09 03:00N 40°39' W 074°04'2 2.6
2017-Nov-09 02:23N 40°39' W 074°06'1 3.2
2017-Nov-09 02:00N 40°39' W 074°08'4 8.2
2017-Nov-09 01:30N 40°36' W 074°12'4 7.7
2017-Nov-09 00:56N 40°33' W 074°15'2 4.8
2017-Nov-09 00:28N 40°34' W 074°13'1 2.3
2017-Nov-09 00:00N 40°35' W 074°13'2 4.8
2017-Nov-08 23:30N 40°37' W 074°12'4 5.9
2017-Nov-08 22:55N 40°38' W 074°08'0 0.0
2017-Nov-08 22:31N 40°38' W 074°08'0 0.1
2017-Nov-08 22:00N 40°38' W 074°08'0 0.0
2017-Nov-08 21:30N 40°38' W 074°08'0 0.0
2017-Nov-08 21:00N 40°38' W 074°08'0 0.0
2017-Nov-08 20:30N 40°39' W 074°08'0 0.0
2017-Nov-08 20:00N 40°38' W 074°08'0 0.0
2017-Nov-08 19:27N 40°38' W 074°08'0 0.0
2017-Nov-08 18:57N 40°38' W 074°08'0 0.0
2017-Nov-08 18:21N 40°38' W 074°08'0 0.0
2017-Nov-08 17:57N 40°38' W 074°08'0 0.0
2017-Nov-08 17:06N 40°38' W 074°08'0 0.0
2017-Nov-08 16:59N 40°38' W 074°08'2 3.3
2017-Nov-08 16:31N 40°40' W 074°09'0 0.7
2017-Nov-08 16:01N 40°40' W 074°09'1 2.9
2017-Nov-08 15:30N 40°39' W 074°07'3 5.8
2017-Nov-08 15:00N 40°38' W 074°03'1 2.5
2017-Nov-08 14:30N 40°37' W 074°04'3 6.7
2017-Nov-08 14:00N 40°39' W 074°08'0 0.3
2017-Nov-08 13:28N 40°38' W 074°08'0 0.0
2017-Nov-08 12:52N 40°38' W 074°08'0 0.0
2017-Nov-08 12:25N 40°38' W 074°08'2 3.9
2017-Nov-08 12:00N 40°40' W 074°08'1 1.2
2017-Nov-08 11:30N 40°41' W 074°08'2 3.9
2017-Nov-08 11:00N 40°39' W 074°09'3 5.5
2017-Nov-08 10:30N 40°39' W 074°05'4 7.1
2017-Nov-08 10:00N 40°36' W 074°02'3 6.5
2017-Nov-08 09:30N 40°39' W 074°05'3 6.3
2017-Nov-08 09:00N 40°39' W 074°09'2 3.1
2017-Nov-08 08:30N 40°41' W 074°09'0 0.5
2017-Nov-08 08:00N 40°41' W 074°09'2 4.8
2017-Nov-08 07:30N 40°39' W 074°09'1 1.2
2017-Nov-08 06:43N 40°38' W 074°08'0 0.0
2017-Nov-08 06:25N 40°38' W 074°08'0 0.0
2017-Nov-08 05:55N 40°38' W 074°08'0 0.0
2017-Nov-08 05:25N 40°38' W 074°08'0 0.0
2017-Nov-08 04:55N 40°38' W 074°08'0 0.0
2017-Nov-08 04:25N 40°38' W 074°08'0 0.0
2017-Nov-08 03:56N 40°38' W 074°08'0 0.0
2017-Nov-08 03:30N 40°38' W 074°08'0 0.0
2017-Nov-08 03:00N 40°38' W 074°08'0 0.0
2017-Nov-08 02:30N 40°38' W 074°08'0 0.0
2017-Nov-08 02:00N 40°38' W 074°08'0 0.0
2017-Nov-08 01:30N 40°38' W 074°08'0 0.0
2017-Nov-08 00:59N 40°38' W 074°08'0 0.2
2017-Nov-08 00:30N 40°39' W 074°08'510.3
2017-Nov-08 00:00N 40°41' W 074°02'1 1.9
2017-Nov-07 23:31N 40°41' W 074°01'2 4.7
2017-Nov-07 23:00N 40°40' W 074°03'0 0.9
2017-Nov-07 22:30N 40°39' W 074°03'1 1.6
2017-Nov-07 22:00N 40°40' W 074°04'1 2.8
2017-Nov-07 21:30N 40°39' W 074°06'3 5.0
2017-Nov-07 21:00N 40°41' W 074°08'1 2.2
2017-Nov-07 20:29N 40°42' W 074°09'1 2.2
2017-Nov-07 20:00N 40°41' W 074°08'2 3.9
2017-Nov-07 19:25N 40°38' W 074°08'0 0.0
2017-Nov-07 18:58N 40°38' W 074°08'0 0.0
2017-Nov-07 18:25N 40°38' W 074°08'0 0.0
2017-Nov-07 17:58N 40°38' W 074°08'0 0.0
2017-Nov-07 17:25N 40°38' W 074°08'  
Track history (hours):
 
Tides and Currents Weather Stations Pressure Air Temp Water Temp Dewpoint Dewpoint Depression Visibility Wind Speed Wind Dir Waves Ship Positions

Margaret Moran

Owner: MORAN TOWING CORPORATION, New Canaan, CT. More information available from US FCC via Universal Licensing System and Coast Guard Vessel Documentation Center.

Last reported at 2017-Nov-17 17:25 UTC. Time now 2017-Nov-17 17:55 UTC.
Position N 40°38' W 074°08'.

Length 31 m; draft 4.6 m.

Type: Tug. MMSI: 366939820.

Date/timePositionNaut miles runAvg speedWind from/ knotsBaromVisibWave heightAir tempDewpointWater temp
2017-Nov-17 17:25N 40°38' W 074°08'0 0.0
2017-Nov-17 16:58N 40°38' W 074°08'0 0.0
2017-Nov-17 16:28N 40°38' W 074°08'0 0.0
2017-Nov-17 15:58N 40°38' W 074°08'0 0.0
2017-Nov-17 15:30N 40°38' W 074°08'0 0.0
2017-Nov-17 15:00N 40°38' W 074°08'0 0.1
2017-Nov-17 14:04N 40°38' W 074°08'0 0.1
2017-Nov-17 13:59N 40°38' W 074°08'2 4.3
2017-Nov-17 13:30N 40°40' W 074°08'2 3.9
2017-Nov-17 13:00N 40°39' W 074°08'2 4.8
2017-Nov-17 12:30N 40°39' W 074°04'2 3.2
2017-Nov-17 12:00N 40°38' W 074°04'3 5.0
2017-Nov-17 11:30N 40°39' W 074°07'2 4.0
2017-Nov-17 11:00N 40°39' W 074°09'2 3.4
2017-Nov-17 10:30N 40°40' W 074°08'1 1.5
2017-Nov-17 10:00N 40°41' W 074°09'0 0.2
2017-Nov-17 09:30N 40°41' W 074°09'3 5.2
2017-Nov-17 09:00N 40°38' W 074°08'0 0.1
2017-Nov-17 08:29N 40°38' W 074°08'0 0.0
2017-Nov-17 07:35N 40°38' W 074°08'0 0.0
2017-Nov-17 07:23N 40°38' W 074°08'0 0.0
2017-Nov-17 06:59N 40°38' W 074°08'0 0.0
2017-Nov-17 06:29N 40°38' W 074°08'0 0.0
2017-Nov-17 05:29N 40°38' W 074°08'0 0.0
2017-Nov-17 04:59N 40°38' W 074°08'0 0.0
2017-Nov-17 04:29N 40°38' W 074°08'0 0.0
2017-Nov-17 02:23N 40°38' W 074°08'0 0.0
2017-Nov-17 01:59N 40°38' W 074°08'1 1.7
2017-Nov-17 01:30N 40°39' W 074°07'2 3.3
2017-Nov-17 01:00N 40°40' W 074°08'2 3.6
2017-Nov-17 00:30N 40°42' W 074°08'0 0.4
2017-Nov-17 00:00N 40°42' W 074°09'3 5.4
2017-Nov-16 23:30N 40°39' W 074°09'5 2.4
2017-Nov-16 21:38N 40°35' W 074°12'0 0.8
2017-Nov-16 21:27N 40°35' W 074°12'1 3.3
2017-Nov-16 21:00N 40°37' W 074°12'2 4.5
2017-Nov-16 20:30N 40°39' W 074°11'3 6.0
2017-Nov-16 20:00N 40°39' W 074°07'1 2.9
2017-Nov-16 19:30N 40°39' W 074°05'2 4.5
2017-Nov-16 19:00N 40°38' W 074°08'0 0.0
2017-Nov-16 18:29N 40°38' W 074°08'0 0.0
2017-Nov-16 17:58N 40°38' W 074°08'0 0.0
2017-Nov-16 17:28N 40°38' W 074°08'0 0.0
2017-Nov-16 16:58N 40°38' W 074°08'0 0.0
2017-Nov-16 16:20N 40°38' W 074°08'0 0.0
2017-Nov-16 15:56N 40°38' W 074°08'0 0.0
2017-Nov-16 15:26N 40°38' W 074°08'0 0.0
2017-Nov-16 14:06N 40°39' W 074°08'0 0.1
2017-Nov-16 13:58N 40°38' W 074°08'0 0.0
2017-Nov-16 13:13N 40°38' W 074°08'0 0.0
2017-Nov-16 12:49N 40°38' W 074°08'0 0.0
2017-Nov-16 12:28N 40°38' W 074°08'1 2.2
2017-Nov-16 12:00N 40°39' W 074°09'2 3.6
2017-Nov-16 11:30N 40°41' W 074°09'0 0.9
2017-Nov-16 11:00N 40°40' W 074°08'2 3.1
2017-Nov-16 10:23N 40°39' W 074°07'2 5.7
2017-Nov-16 10:00N 40°39' W 074°04'3 5.7
2017-Nov-16 09:30N 40°39' W 074°08'3 6.7
2017-Nov-16 09:01N 40°39' W 074°04'1 1.6
2017-Nov-16 08:30N 40°38' W 074°04'3 6.0
2017-Nov-16 07:58N 40°38' W 074°08'0 0.0
2017-Nov-16 07:28N 40°38' W 074°08'0 0.0
2017-Nov-16 06:58N 40°38' W 074°08'0 0.0
2017-Nov-16 06:28N 40°38' W 074°08'0 0.0
2017-Nov-16 05:58N 40°38' W 074°08'0 0.0
2017-Nov-16 05:28N 40°38' W 074°08'0 0.0
2017-Nov-16 04:58N 40°38' W 074°08'0 0.0
2017-Nov-16 04:28N 40°38' W 074°08'0 0.0
2017-Nov-16 03:58N 40°38' W 074°08'0 0.0
2017-Nov-16 03:28N 40°38' W 074°08'0 0.0
2017-Nov-16 02:58N 40°38' W 074°08'0 0.0
2017-Nov-16 02:28N 40°38' W 074°08'0 0.8
2017-Nov-16 02:00N 40°39' W 074°08'2 4.8
2017-Nov-16 01:30N 40°38' W 074°11'0 0.2
2017-Nov-16 01:00N 40°38' W 074°12'2 3.4
2017-Nov-16 00:30N 40°39' W 074°09'5 9.5
2017-Nov-16 00:01N 40°40' W 074°03'2 3.0
2017-Nov-15 23:30N 40°39' W 074°05'0 0.0
2017-Nov-15 23:00N 40°39' W 074°05'1 1.5
2017-Nov-15 22:30N 40°39' W 074°04'1 2.4
2017-Nov-15 22:00N 40°38' W 074°03'0 0.0
2017-Nov-15 21:30N 40°38' W 074°03'3 5.9
2017-Nov-15 21:00N 40°39' W 074°07'2 3.8
2017-Nov-15 20:27N 40°40' W 074°08'1 1.2
2017-Nov-15 20:00N 40°41' W 074°08'2 4.0
2017-Nov-15 19:30N 40°43' W 074°07'2 4.5
2017-Nov-15 19:00N 40°41' W 074°08'1 2.7
2017-Nov-15 18:30N 40°39' W 074°09'1 2.5
2017-Nov-15 18:00N 40°39' W 074°07'0 0.7
2017-Nov-15 17:30N 40°38' W 074°08'0 0.0
2017-Nov-15 16:54N 40°38' W 074°08'0 0.0
2017-Nov-15 16:24N 40°38' W 074°08'0 0.0
2017-Nov-15 15:48N 40°38' W 074°08'0 0.0
2017-Nov-15 15:27N 40°38' W 074°08'0 0.0
2017-Nov-15 14:54N 40°38' W 074°08'0 0.0
2017-Nov-15 14:30N 40°38' W 074°08'0 0.0
2017-Nov-15 13:49N 40°38' W 074°08'1 2.6
2017-Nov-15 13:30N 40°39' W 074°09'3 5.0
2017-Nov-15 13:00N 40°39' W 074°06'2 3.5
2017-Nov-15 12:30N 40°38' W 074°04'2 3.5
2017-Nov-15 12:00N 40°39' W 074°06'0 0.0
2017-Nov-15 11:30N 40°39' W 074°06'0 0.0
2017-Nov-15 11:00N 40°39' W 074°06'0 0.0
2017-Nov-15 10:27N 40°39' W 074°06'1 2.2
2017-Nov-15 10:00N 40°39' W 074°07'1 3.0
2017-Nov-15 09:30N 40°39' W 074°09'2 3.2
2017-Nov-15 09:00N 40°41' W 074°08'1 1.5
2017-Nov-15 08:30N 40°41' W 074°09'0 0.2
2017-Nov-15 07:59N 40°41' W 074°09'0 0.0
2017-Nov-15 07:29N 40°41' W 074°09'0 0.3
2017-Nov-15 07:00N 40°41' W 074°09'3 4.9
2017-Nov-15 06:28N 40°38' W 074°08'0 0.0
2017-Nov-15 05:58N 40°39' W 074°08'0 0.0
2017-Nov-15 05:28N 40°39' W 074°08'0 0.0
2017-Nov-15 04:58N 40°38' W 074°08'0 0.0
2017-Nov-15 04:26N 40°38' W 074°08'4 8.5
2017-Nov-15 04:00N 40°40' W 074°03'2 5.0
2017-Nov-15 03:30N 40°41' W 074°01'2 3.9
2017-Nov-15 03:00N 40°40' W 074°03'1 2.2
2017-Nov-15 02:30N 40°39' W 074°03'2 4.9
2017-Nov-15 02:00N 40°39' W 074°06'1 2.1
2017-Nov-15 01:28N 40°38' W 074°08'0 0.0
2017-Nov-15 00:43N 40°38' W 074°08'0 0.0
2017-Nov-15 00:25N 40°38' W 074°08'0 0.0
2017-Nov-14 23:58N 40°38' W 074°08'2 5.4
2017-Nov-14 23:31N 40°39' W 074°11'1 2.6
2017-Nov-14 23:00N 40°38' W 074°12'1 2.3
2017-Nov-14 22:30N 40°37' W 074°12'2 2.8
2017-Nov-14 21:56N 40°35' W 074°13'1 1.2
2017-Nov-14 21:30N 40°36' W 074°12'4 8.0
2017-Nov-14 21:00N 40°39' W 074°09'1 2.6
2017-Nov-14 20:30N 40°38' W 074°08'0 0.0
2017-Nov-14 19:54N 40°38' W 074°08'0 0.0
2017-Nov-14 19:30N 40°38' W 074°08'0 0.0
2017-Nov-14 19:00N 40°38' W 074°08'0 0.0
2017-Nov-14 18:30N 40°38' W 074°08'0 0.0
2017-Nov-14 17:54N 40°38' W 074°08'0 0.0
2017-Nov-14 17:30N 40°38' W 074°08'0 0.0
2017-Nov-14 16:21N 40°38' W 074°08'0 0.0
2017-Nov-14 15:57N 40°38' W 074°08'0 0.0
2017-Nov-14 14:42N 40°38' W 074°08'1 5.5
2017-Nov-14 14:30N 40°39' W 074°06'2 3.5
2017-Nov-14 13:54N 40°39' W 074°09'2 4.4
2017-Nov-14 13:30N 40°41' W 074°09'0 0.1
2017-Nov-14 13:00N 40°41' W 074°09'2 4.0
2017-Nov-14 12:30N 40°39' W 074°09'1 1.6
2017-Nov-14 11:58N 40°38' W 074°08'0 0.0
2017-Nov-14 11:30N 40°38' W 074°08'4 7.4
2017-Nov-14 11:00N 40°40' W 074°03'1 2.8
2017-Nov-14 10:30N 40°40' W 074°05'0 0.2
2017-Nov-14 10:00N 40°40' W 074°05'0 0.0
2017-Nov-14 09:31N 40°40' W 074°05'0 0.0
2017-Nov-14 09:00N 40°40' W 074°05'0 0.0
2017-Nov-14 08:30N 40°40' W 074°05'0 0.0
2017-Nov-14 08:00N 40°40' W 074°05'1 2.2
2017-Nov-14 07:31N 40°39' W 074°05'5 9.0
2017-Nov-14 07:00N 40°39' W 074°11'4 7.8
2017-Nov-14 06:30N 40°35' W 074°13'0 0.0
2017-Nov-14 06:01N 40°35' W 074°13'0 0.1
2017-Nov-14 05:30N 40°35' W 074°13'4 7.1
2017-Nov-14 05:00N 40°39' W 074°11'3 5.4
2017-Nov-14 04:29N 40°38' W 074°08'0 0.0
2017-Nov-14 03:59N 40°38' W 074°08'0 0.0
2017-Nov-14 03:29N 40°38' W 074°08'0 0.0
2017-Nov-14 02:59N 40°38' W 074°08'0 0.0
2017-Nov-14 02:20N 40°38' W 074°08'0 0.0
2017-Nov-14 01:59N 40°38' W 074°08'0 0.0
2017-Nov-14 01:29N 40°38' W 074°08'0 0.0
2017-Nov-14 00:59N 40°38' W 074°08'0 0.0
2017-Nov-14 00:11N 40°38' W 074°08'0 0.0
2017-Nov-13 23:59N 40°38' W 074°08'0 0.0
2017-Nov-13 23:26N 40°38' W 074°08'0 0.0
2017-Nov-13 23:00N 40°38' W 074°08'4 7.3
2017-Nov-13 22:30N 40°37' W 074°03'0 1.0
2017-Nov-13 22:00N 40°38' W 074°04'3 0.2
2017-Nov-13 02:00N 40°38' W 074°08'0 0.0
2017-Nov-13 01:27N 40°38' W 074°08'0 0.0
2017-Nov-13 01:00N 40°38' W 074°08'0 0.0
2017-Nov-13 00:30N 40°38' W 074°08'0 0.0
2017-Nov-12 23:57N 40°38' W 074°08'0 0.0
2017-Nov-12 23:30N 40°38' W 074°08'0 0.0
2017-Nov-12 22:45N 40°38' W 074°08'0 0.0
2017-Nov-12 22:30N 40°38' W 074°08'0 0.0
2017-Nov-12 21:57N 40°38' W 074°08'0 0.1
2017-Nov-12 21:27N 40°38' W 074°08'0 0.0
2017-Nov-12 21:00N 40°38' W 074°08'0 0.0
2017-Nov-12 20:27N 40°38' W 074°08'0 0.0
2017-Nov-12 20:00N 40°38' W 074°08'0 0.0
2017-Nov-12 19:27N 40°38' W 074°08'0 0.0
2017-Nov-12 18:57N 40°38' W 074°08'0 0.0
2017-Nov-12 18:30N 40°38' W 074°08'0 0.0
2017-Nov-12 17:57N 40°38' W 074°08'0 0.0
2017-Nov-12 17:30N 40°38' W 074°08'0 0.0
2017-Nov-12 16:54N 40°38' W 074°08'1 3.1
2017-Nov-12 16:30N 40°40' W 074°09'1 1.9
2017-Nov-12 16:00N 40°40' W 074°08'2 3.9
2017-Nov-12 15:30N 40°39' W 074°08'1 0.2
2017-Nov-12 12:48N 40°38' W 074°08'1 2.7
2017-Nov-12 12:30N 40°39' W 074°09'3 5.1
2017-Nov-12 12:00N 40°41' W 074°08'0 0.3
2017-Nov-12 11:30N 40°41' W 074°08'1 1.5
2017-Nov-12 10:59N 40°40' W 074°08'2 3.3
2017-Nov-12 10:30N 40°39' W 074°08'3 6.0
2017-Nov-12 10:00N 40°39' W 074°04'2 3.8
2017-Nov-12 09:30N 40°41' W 074°04'0 0.4
2017-Nov-12 09:01N 40°41' W 074°04'3 6.7
2017-Nov-12 08:30N 40°39' W 074°07'0 0.6
2017-Nov-12 07:59N 40°38' W 074°08'0 0.0
2017-Nov-12 07:29N 40°38' W 074°08'0 0.0
2017-Nov-12 06:59N 40°38' W 074°08'0 0.0
2017-Nov-12 06:29N 40°38' W 074°08'0 0.0
2017-Nov-12 05:59N 40°38' W 074°08'0 0.0
2017-Nov-12 05:29N 40°38' W 074°08'0 0.0
2017-Nov-12 04:56N 40°38' W 074°08'0 0.0
2017-Nov-12 04:29N 40°38' W 074°08'0 0.0
2017-Nov-12 03:59N 40°38' W 074°08'0 0.0
2017-Nov-12 03:29N 40°38' W 074°08'0 0.0
2017-Nov-12 02:59N 40°38' W 074°08'0 0.0
2017-Nov-12 02:29N 40°38' W 074°08'0 0.0
2017-Nov-12 01:53N 40°38' W 074°08'0 0.0
2017-Nov-12 01:29N 40°38' W 074°08'0 0.0
2017-Nov-12 00:50N 40°38' W 074°08'0 0.0
2017-Nov-12 00:26N 40°38' W 074°08'0 0.0
2017-Nov-11 23:59N 40°38' W 074°08'0 0.0
2017-Nov-11 23:26N 40°38' W 074°08'0 0.0
2017-Nov-11 22:56N 40°38' W 074°08'0 0.0
2017-Nov-11 22:30N 40°38' W 074°08'3 5.3
2017-Nov-11 21:59N 40°41' W 074°09'1 2.5
2017-Nov-11 21:30N 40°40' W 074°08'2 3.0
2017-Nov-11 20:59N 40°39' W 074°08'0 0.2
2017-Nov-11 20:26N 40°38' W 074°08'0 0.0
2017-Nov-11 19:50N 40°38' W 074°08'0 0.0
2017-Nov-11 19:20N 40°38' W 074°08'0 0.0
2017-Nov-11 18:59N 40°38' W 074°08'3 6.7
2017-Nov-11 18:29N 40°40' W 074°04'1 2.4
2017-Nov-11 18:00N 40°40' W 074°05'2 4.9
2017-Nov-11 17:30N 40°39' W 074°07'0 0.6
2017-Nov-11 16:57N 40°38' W 074°08'0 0.0
2017-Nov-11 16:24N 40°38' W 074°08'0 0.0
2017-Nov-11 16:00N 40°38' W 074°08'0 0.0
2017-Nov-11 15:30N 40°38' W 074°08'0 0.0
2017-Nov-11 15:00N 40°38' W 074°08'0 0.0
2017-Nov-11 14:30N 40°38' W 074°08'0 0.1
2017-Nov-11 14:00N 40°38' W 074°08'0 0.0
2017-Nov-11 13:30N 40°38' W 074°08'0 0.0
2017-Nov-11 13:00N 40°38' W 074°08'0 0.0
2017-Nov-11 12:30N 40°38' W 074°08'0 0.0
2017-Nov-11 11:57N 40°38' W 074°08'0 0.0
2017-Nov-11 11:27N 40°38' W 074°08'0 0.0
2017-Nov-11 11:00N 40°38' W 074°08'0 0.0
2017-Nov-11 10:27N 40°38' W 074°08'0 0.0
2017-Nov-11 09:57N 40°38' W 074°08'0 0.0
2017-Nov-11 09:30N 40°38' W 074°08'0 0.0
2017-Nov-11 08:57N 40°38' W 074°08'0 0.0
2017-Nov-11 08:27N 40°38' W 074°08'0 0.0
2017-Nov-11 07:57N 40°38' W 074°08'0 0.0
2017-Nov-11 07:21N 40°38' W 074°08'0 0.0
2017-Nov-11 06:57N 40°38' W 074°08'0 0.0
2017-Nov-11 06:27N 40°38' W 074°08'0 0.0
2017-Nov-11 05:57N 40°38' W 074°08'0 0.0
2017-Nov-11 05:27N 40°38' W 074°08'0 0.0
2017-Nov-11 05:00N 40°38' W 074°08'0 0.0
2017-Nov-11 04:27N 40°38' W 074°08'2 4.3
2017-Nov-11 04:00N 40°39' W 074°10'7 9.4
2017-Nov-11 03:14N 40°33' W 074°15'0 0.2
2017-Nov-11 02:11N 40°33' W 074°15'2 0.7
2017-Nov-10 22:40N 40°34' W 074°13'1 6.0
2017-Nov-10 22:29N 40°35' W 074°12'3 5.7
2017-Nov-10 22:00N 40°38' W 074°12'2 4.3
2017-Nov-10 21:30N 40°39' W 074°09'3 6.1
2017-Nov-10 21:01N 40°39' W 074°05'3 5.4
2017-Nov-10 20:30N 40°37' W 074°03'2 3.7
2017-Nov-10 20:00N 40°38' W 074°04'0 0.0
2017-Nov-10 19:30N 40°38' W 074°04'0 1.0
2017-Nov-10 19:01N 40°38' W 074°04'1 1.7
2017-Nov-10 18:30N 40°39' W 074°04'3 4.5
2017-Nov-10 17:55N 40°38' W 074°08'0 0.0
2017-Nov-10 17:25N 40°38' W 074°08'0 0.0
2017-Nov-10 16:58N 40°38' W 074°08'0 0.0
2017-Nov-10 16:28N 40°38' W 074°08'0 0.0
2017-Nov-10 15:55N 40°38' W 074°08'0 0.0
2017-Nov-10 15:28N 40°38' W 074°08'0 0.0
2017-Nov-10 14:58N 40°38' W 074°08'0 0.0
2017-Nov-10 14:28N 40°38' W 074°08'0 0.0
2017-Nov-10 13:58N 40°38' W 074°08'0 0.0
2017-Nov-10 13:07N 40°38' W 074°08'0 0.0
2017-Nov-10 12:55N 40°38' W 074°08'0 0.0
2017-Nov-10 12:28N 40°38' W 074°08'1 3.1
2017-Nov-10 12:00N 40°40' W 074°08'1 2.8
2017-Nov-10 11:29N 40°41' W 074°09'1 2.5
2017-Nov-10 11:00N 40°40' W 074°08'2 3.4
2017-Nov-10 10:30N 40°39' W 074°09'3 5.1
2017-Nov-10 10:01N 40°39' W 074°05'2 4.8
2017-Nov-10 09:31N 40°38' W 074°03'3 6.5
2017-Nov-10 09:00N 40°39' W 074°07'1 1.3
2017-Nov-10 08:30N 40°38' W 074°08'0 0.0
2017-Nov-10 08:00N 40°38' W 074°08'0 0.0
2017-Nov-10 07:30N 40°38' W 074°08'0 0.0
2017-Nov-10 07:00N 40°38' W 074°08'3 5.1
2017-Nov-10 06:30N 40°39' W 074°11'0 0.7
2017-Nov-10 06:01N 40°38' W 074°12'3 5.5
2017-Nov-10 05:30N 40°39' W 074°08'3 5.2
2017-Nov-10 05:00N 40°39' W 074°05'4 7.7
2017-Nov-10 04:31N 40°36' W 074°02'2 3.9
2017-Nov-10 04:00N 40°38' W 074°03'4 5.9
2017-Nov-10 03:23N 40°38' W 074°08'0 0.0
2017-Nov-10 03:00N 40°38' W 074°08'2 3.8
2017-Nov-10 02:30N 40°39' W 074°10'1 1.9
2017-Nov-10 02:00N 40°38' W 074°11'0 0.3
2017-Nov-10 01:29N 40°38' W 074°12'0 0.0
2017-Nov-10 00:59N 40°38' W 074°12'2 4.3
2017-Nov-10 00:30N 40°36' W 074°12'3 0.8
2017-Nov-09 21:16N 40°34' W 074°13'311.0
2017-Nov-09 21:00N 40°37' W 074°12'3 5.9
2017-Nov-09 20:30N 40°39' W 074°09'1 2.2
2017-Nov-09 19:56N 40°38' W 074°08'0 0.0
2017-Nov-09 19:29N 40°38' W 074°08'0 0.0
2017-Nov-09 18:56N 40°38' W 074°08'0 0.0
2017-Nov-09 18:29N 40°38' W 074°08'0 0.0
2017-Nov-09 17:59N 40°38' W 074°08'0 0.0
2017-Nov-09 17:29N 40°38' W 074°08'0 0.0
2017-Nov-09 16:56N 40°38' W 074°08'0 0.0
2017-Nov-09 16:26N 40°38' W 074°08'0 0.0
2017-Nov-09 15:59N 40°38' W 074°08'0 0.0
2017-Nov-09 15:30N 40°38' W 074°08'4 7.8
2017-Nov-09 14:59N 40°36' W 074°12'0 0.4
2017-Nov-09 13:57N 40°36' W 074°12'3 2.6
2017-Nov-09 12:48N 40°33' W 074°14'1 3.7
2017-Nov-09 12:30N 40°34' W 074°13'3 5.6
2017-Nov-09 12:00N 40°37' W 074°12'3 5.4
2017-Nov-09 11:30N 40°39' W 074°10'3 6.0
2017-Nov-09 11:00N 40°39' W 074°06'1 1.6
2017-Nov-09 10:30N 40°39' W 074°05'0 0.0
2017-Nov-09 10:00N 40°39' W 074°05'1 2.7
2017-Nov-09 09:30N 40°39' W 074°07'1 1.3
2017-Nov-09 08:59N 40°38' W 074°08'0 0.0
2017-Nov-09 08:26N 40°38' W 074°08'0 0.0
2017-Nov-09 07:56N 40°38' W 074°08'0 0.0
2017-Nov-09 07:29N 40°38' W 074°08'0 0.0
2017-Nov-09 06:56N 40°38' W 074°08'0 0.0
2017-Nov-09 06:29N 40°38' W 074°08'0 0.0
2017-Nov-09 05:59N 40°39' W 074°08'0 0.0
2017-Nov-09 05:29N 40°38' W 074°08'0 0.0
2017-Nov-09 04:59N 40°39' W 074°08'0 0.0
2017-Nov-09 04:23N 40°38' W 074°08'0 0.0
2017-Nov-09 03:59N 40°38' W 074°08'4 7.8
2017-Nov-09 03:31N 40°38' W 074°03'1 1.9
2017-Nov-09 03:00N 40°39' W 074°04'2 2.6
2017-Nov-09 02:23N 40°39' W 074°06'1 3.2
2017-Nov-09 02:00N 40°39' W 074°08'4 8.2
2017-Nov-09 01:30N 40°36' W 074°12'4 7.7
2017-Nov-09 00:56N 40°33' W 074°15'2 4.8
2017-Nov-09 00:28N 40°34' W 074°13'1 2.3
2017-Nov-09 00:00N 40°35' W 074°13'2 4.8
2017-Nov-08 23:30N 40°37' W 074°12'4 5.9
2017-Nov-08 22:55N 40°38' W 074°08'0 0.0
2017-Nov-08 22:31N 40°38' W 074°08'0 0.1
2017-Nov-08 22:00N 40°38' W 074°08'0 0.0
2017-Nov-08 21:30N 40°38' W 074°08'0 0.0
2017-Nov-08 21:00N 40°38' W 074°08'0 0.0
2017-Nov-08 20:30N 40°39' W 074°08'0 0.0
2017-Nov-08 20:00N 40°38' W 074°08'0 0.0
2017-Nov-08 19:27N 40°38' W 074°08'0 0.0
2017-Nov-08 18:57N 40°38' W 074°08'0 0.0
2017-Nov-08 18:21N 40°38' W 074°08'0 0.0
2017-Nov-08 17:57N 40°38' W 074°08'0 0.0
2017-Nov-08 17:06N 40°38' W 074°08'0 0.0
2017-Nov-08 16:59N 40°38' W 074°08'2 3.3
2017-Nov-08 16:31N 40°40' W 074°09'0 0.7
2017-Nov-08 16:01N 40°40' W 074°09'1 2.9
2017-Nov-08 15:30N 40°39' W 074°07'3 5.8
2017-Nov-08 15:00N 40°38' W 074°03'1 2.5
2017-Nov-08 14:30N 40°37' W 074°04'3 6.7
2017-Nov-08 14:00N 40°39' W 074°08'0 0.3
2017-Nov-08 13:28N 40°38' W 074°08'0 0.0
2017-Nov-08 12:52N 40°38' W 074°08'0 0.0
2017-Nov-08 12:25N 40°38' W 074°08'2 3.9
2017-Nov-08 12:00N 40°40' W 074°08'1 1.2
2017-Nov-08 11:30N 40°41' W 074°08'2 3.9
2017-Nov-08 11:00N 40°39' W 074°09'3 5.5
2017-Nov-08 10:30N 40°39' W 074°05'4 7.1
2017-Nov-08 10:00N 40°36' W 074°02'3 6.5
2017-Nov-08 09:30N 40°39' W 074°05'3 6.3
2017-Nov-08 09:00N 40°39' W 074°09'2 3.1
2017-Nov-08 08:30N 40°41' W 074°09'0 0.5
2017-Nov-08 08:00N 40°41' W 074°09'2 4.8
2017-Nov-08 07:30N 40°39' W 074°09'1 1.2
2017-Nov-08 06:43N 40°38' W 074°08'0 0.0
2017-Nov-08 06:25N 40°38' W 074°08'0 0.0
2017-Nov-08 05:55N 40°38' W 074°08'0 0.0
2017-Nov-08 05:25N 40°38' W 074°08'0 0.0
2017-Nov-08 04:55N 40°38' W 074°08'0 0.0
2017-Nov-08 04:25N 40°38' W 074°08'0 0.0
2017-Nov-08 03:56N 40°38' W 074°08'0 0.0
2017-Nov-08 03:30N 40°38' W 074°08'0 0.0
2017-Nov-08 03:00N 40°38' W 074°08'0 0.0
2017-Nov-08 02:30N 40°38' W 074°08'0 0.0
2017-Nov-08 02:00N 40°38' W 074°08'0 0.0
2017-Nov-08 01:30N 40°38' W 074°08'0 0.0
2017-Nov-08 00:59N 40°38' W 074°08'0 0.2
2017-Nov-08 00:30N 40°39' W 074°08'510.3
2017-Nov-08 00:00N 40°41' W 074°02'1 1.9
2017-Nov-07 23:31N 40°41' W 074°01'2 4.7
2017-Nov-07 23:00N 40°40' W 074°03'0 0.9
2017-Nov-07 22:30N 40°39' W 074°03'1 1.6
2017-Nov-07 22:00N 40°40' W 074°04'1 2.8
2017-Nov-07 21:30N 40°39' W 074°06'3 5.0
2017-Nov-07 21:00N 40°41' W 074°08'1 2.2
2017-Nov-07 20:29N 40°42' W 074°09'1 2.2
2017-Nov-07 20:00N 40°41' W 074°08'2 3.9
2017-Nov-07 19:25N 40°38' W 074°08'0 0.0
2017-Nov-07 18:58N 40°38' W 074°08'0 0.0
2017-Nov-07 18:25N 40°38' W 074°08'0 0.0
2017-Nov-07 17:58N 40°38' W 074°08'0 0.0
2017-Nov-07 17:25N 40°38' W 074°08'  

Dump ship's entire track history